Regional Weather Roundup
Issued by NWS

Home | Current Version | Previous Version | Text Only | Print | Product List | Glossary On
Versions: 1 2 3 4 5 6 7 8 9 10 11 12 13 14 15 16 17 18 19 20 21 22 23 24 25 26 27 28 29 30 31 32 33 34 35 36 37 38 39 40 41 42 43 44 45 46 47 48 49 50
000
ASUS43 KDMX 230301
RWRIA

WEATHER ROUNDUP FOR IOWA
NATIONAL WEATHER SERVICE DES MOINES IA
1000 PM CDT SUN OCT 22 2017

NOTE: "FAIR" INDICATES FEW OR NO CLOUDS BELOW 12,000 FEET WITH NO
SIGNIFICANT WEATHER AND/OR OBSTRUCTIONS TO VISIBILITY.

* - THESE STATIONS ARE NOT NWS STATIONS...THUS NOT UNDER NWS
QUALITY CONTROL.  THEY ALSO DO NOT REPORT WEATHER SUCH
AS PRECIPITATION OR FOG.

IAZ001>003-012>014-020>022-031>034-043>046-230400-
   NORTHWEST IOWA

CITY           SKY/WX    TMP DP  RH WIND       PRES   REMARKS
CHEROKEE *     CLEAR     51  34  52 S13       29.93F
DENISON *      CLEAR     54  32  43 S13G20    29.97F
LE MARS *      CLEAR     50  32  50 MISG      29.91S
ORANGE CITY *  CLEAR     50  34  53 S7        29.91S
SHELDON *      CLEAR     48  32  53 S7        29.89F
SIOUX CITY     CLEAR     44  35  70 E7        29.92F
SPENCER        CLEAR     50  35  56 S13       29.92F
STORM LAKE *   CLEAR     48  34  57 S9        29.95S
$$

IAZ055>058-069>071-079>083-090>094-230400-
   SOUTHWEST IOWA

CITY           SKY/WX    TMP DP  RH WIND       PRES   REMARKS
ATLANTIC *     CLEAR     48  36  61 S7        30.00F
AUDUBON *      CLEAR     45  37  76 CALM      30.00F
CLARINDA *       N/A     43  39  87 CALM      30.06R
COUNCIL BLFS * CLEAR     54  32  43 S9        29.98F
CRESTON *      CLEAR     50  37  62 S10       30.04S HAZE
HARLAN  *      CLEAR     48  36  61 S6        30.01F
LAMONI         CLEAR     50  43  77 S9        30.05S
RED OAK *      CLEAR     46  36  66 S3        30.02S
SHENANDOAH *   CLEAR     50  36  57 CALM      30.03R
$$

IAZ047>049-059>061-072>074-084-230400-
   CENTRAL IOWA

CITY           SKY/WX    TMP DP  RH WIND       PRES   REMARKS
AMES           CLEAR     47  41  80 S8        30.01S
ANKENY *       CLEAR     48  41  76 SE5       30.03S
BOONE *        CLEAR     46  37  71 S7        30.00S
CHARITON *     CLOUDY    46  43  87 S6        30.04F
DES MOINES     PTCLDY    51  41  68 S10       30.02F
GRINNELL*      CLOUDY    46  41  84 S5        30.05F
KNOXVILLE *    CLOUDY    50  41  71 S8        30.03F
MARSHALLTOWN   CLOUDY    47  42  83 SE6       30.02F
NEWTON *       CLOUDY    46  43  87 S8        30.04F
PELLA *        CLOUDY    48  42  79 S5        30.06S
PERRY *          N/A     45  34  65 S7        30.01S
$$

IAZ004>006-015-016-023>025-035-036-230400-
   NORTH CENTRAL IOWA

CITY           SKY/WX    TMP DP  RH WIND       PRES   REMARKS
ALGONA *       CLEAR     50  36  57 S10       29.96F
CLARION *      CLEAR     46  36  66 S10       29.99S
ESTHERVILLE    CLEAR     47  36  65 S10       29.92F
FORT DODGE *   CLEAR     52  33  48 S7        29.98F
MASON CITY     CLEAR     41  34  76 S9        30.00S
FOREST CITY *    N/A     43  36  75 S7        29.98S
WEBSTER CITY * CLEAR     50  32  50 S8        29.97S
IOWA FALLS *     N/A     48  39  71 S8        30.02S
$$

IAZ007>011-017>019-026>030-037>042-050>054-066-230400-
   NORTHEAST IOWA

CITY           SKY/WX    TMP DP  RH WIND       PRES   REMARKS
CEDAR RAPIDS   CLOUDY    46  45  96 S3        30.04F
CHARLES CITY * CLEAR     48  45  87 S8        30.01F
CLINTON *      CLOUDY    50  50 100 CALM      30.05F
DECORAH *      CLOUDY    46  43  87 VRB5      30.01S
DUBUQUE        CLOUDY    47  45  93 S3        30.05S
MONTICELLO *   CLOUDY    46  45  93 CALM      30.05S
OELWEIN *      CLOUDY    45  45 100 S6        30.04S
WATERLOO       CLOUDY    47  43  86 S7        30.02F
$$

IAZ064-065-067-068-078-230400-
   EAST CENTRAL IOWA

CITY           SKY/WX    TMP DP  RH WIND       PRES   REMARKS
DAVENPORT      CLOUDY    50  48  93 CALM      30.07F
IOWA CITY      CLOUDY    49  46  90 CALM      30.07F
MUSCATINE *    CLOUDY    50  48  93 CALM      30.05F
QUAD CITIES    CLOUDY    51  49  92 CALM      30.04F
$$

IAZ062-063-075>077-085>089-095>099-230400-
   SOUTHEAST IOWA

CITY           SKY/WX    TMP DP  RH WIND       PRES   REMARKS
BURLINGTON     CLOUDY    51  51 100 CALM      30.04F
FAIRFIELD *    CLOUDY    48  46  93 SW5       30.05F
FORT MADISON * CLOUDY    52  50  93 CALM      30.06F
KEOKUK *       MOCLDY    52  50  93 CALM      30.05F
OSKALOOSA *      N/A     46  45  95 S5        30.05F
OTTUMWA        PTCLDY    49  46  90 S5        30.05F
WASHINGTON *   CLOUDY    48  48 100 CALM      30.06F
$$

ABBREVIATIONS USED IN REMARKS
   TC - TEMPERATURES IN CELSIUS
  WCI - WIND CHILL INDEX
   HX - HEAT INDEX
  VSB - VISIBILITY
$$





USA.gov is the U.S. government's official web portal to all federal, state and local government web resources and services.